Location: Duratón
(41.2840°N, 3.6798°W)
Time: 22:27:37
(UTC+00:00)

Daily predictions for brighter satellites

Satellite Brightness Start Highest point End
(mag) Time Altitude Azimuth Time Altitude Azimuth Time Altitude Azimuth
Cosmos 1725 Rocket 4.4 18:07:06 10° N 18:13:20 74° W 18:19:35 10° S
SAR-Lupe-1 4.2 18:12:04 10° SSE 18:15:31 49° ENE 18:18:58 10° N
USA 234 3.3 18:09:41 10° ESE 18:16:11 70° NE 18:22:42 10° NW
Cosmos 1980 4.0 18:11:12 10° NNW 18:16:38 46° ENE 18:22:02 10° SE
SJ-6F 4.3 18:14:31 10° SSE 18:18:27 81° ENE 18:22:23 10° N
Cosmos 773 Rocket 4.4 18:16:05 10° S 18:21:01 43° ESE 18:25:59 10° NNE
Cosmos 2237 Rocket 2.5 18:16:21 10° NNW 18:21:50 46° ENE 18:27:16 10° SE
COSMOS 2428 3.0 18:16:37 10° NNW 18:22:21 74° WSW 18:28:02 10° SSE
Spot 4 Rocket 4.4 18:17:39 10° SE 18:22:24 41° ENE 18:27:10 10° N
ARIANE 5 R/B 3.2 18:21:49 10° S 18:26:52 61° WSW 18:31:54 10° NNW
Cosmos 2208 Rocket 4.3 18:22:02 10° S 18:26:57 45° ESE 18:31:59 10° NNE
Okean 1 Rocket 3.0 18:25:43 10° N 18:30:07 83° E 18:34:27 10° S
SAR-Lupe-4 3.5 18:28:06 10° SSE 18:31:39 85° ENE 18:35:14 10° NNW
Cosmos 44 Rocket 3.3 18:31:01 10° SSW 18:35:52 76° ESE 18:40:55 10° NE
Cosmos 1346 Rocket 3.9 18:33:45 10° SE 18:36:25 20° E 18:39:06 10° NE
Cosmos 2221 Rocket 3.9 18:33:24 10° SSW 18:37:51 71° W 18:42:21 10° N
Okean 2 Rocket 3.5 18:33:55 10° NNW 18:38:17 68° W 18:42:35 10° S
Cosmos 1025 Rocket 4.0 18:34:44 10° SSW 18:38:54 51° W 18:43:08 10° N
Cosmos 2061 Rocket 4.2 18:32:33 10° N 18:38:56 79° W 18:45:11 10° S
Cosmos 1602 3.7 18:37:38 10° SSE 18:40:04 28° E 18:42:31 10° NNE
CZ-4C R/B 3.7 18:37:12 10° W 18:40:47 24° NW 18:45:05 10° NNE
Cosmos 836 Rocket 4.5 18:37:15 10° SSW 18:42:31 83° ESE 18:47:50 10° NNE
Cosmos 2227 Rocket 2.4 18:37:42 10° S 18:43:07 50° ESE 18:48:33 10° NE
Cosmos 1464 Rocket 4.4 18:38:50 10° N 18:44:44 39° ENE 18:50:33 10° SE
Delta 2 Rocket 4.1 18:43:25 10° WSW 18:46:02 26° S 18:48:18 13° SE
SL-16 R/B 3.3 18:43:42 10° N 18:48:10 23° NE 18:50:50 17° E
Helios 1A Rocket 3.5 18:49:53 21° E 18:50:25 22° E 18:53:02 10° SSE
NOSS 3-4 (A) 4.0 18:45:11 10° NNW 18:51:58 58° NE 18:59:53 10° SE
NOSS 3-4 (C) 4.0 18:45:28 10° NNW 18:52:15 57° NE 19:00:10 10° SE
Resurs 1-3 3.9 18:50:26 10° S 18:54:41 68° W 18:58:59 10° NNW
Sich 1 Rocket 4.4 18:50:39 10° NNW 18:55:06 56° W 18:59:32 10° S
Aureole 3 Rocket 2.5 18:51:39 10° NNW 18:55:11 73° W 18:58:13 10° S
Cosmos 2150 Rocket 4.2 18:51:05 10° N 18:56:02 45° ENE 19:00:55 10° SE
Cosmos 2298 Rocket 4.2 18:54:58 10° N 19:00:05 47° ENE 19:05:11 10° SE
Resurs 01 Rocket 1.6 18:58:13 10° SSE 19:02:32 60° ENE 19:06:52 10° N
BREEZE-M DEB (TANK) 3.4 19:00:58 10° SSW 19:04:14 49° SE 19:11:13 16° ENE
Cosmos 1782 2.9 19:05:17 10° N 19:08:39 38° ENE 19:09:31 32° ESE
Gbstr 26 Del rocket 4.2 19:03:11 10° SW 19:09:40 67° SE 19:15:03 20° ENE
CARTOSAT-1 3.6 19:08:11 10° S 19:12:22 77° WSW 19:16:35 10° NNW
Atlas Centaur 2 4.0 19:08:56 10° WSW 19:15:48 33° SSW 19:20:55 14° SE
CSL-04 Rocket 4.2 19:17:14 29° E 19:18:29 33° ENE 19:23:10 10° N
ARIANE 6 FM1 Upper Stage 4.1 19:19:07 10° N 19:21:31 20° NNE 19:21:31 20° NNE
Cosmos 2297 Rocket 3.9 19:22:49 10° WSW 19:27:48 32° WNW 19:32:51 10° N
BREEZE-M DEB (TANK) 4.3 19:23:34 10° NW 19:27:52 79° NNE 19:36:56 21° ESE
Cosmos 2058 2.6 19:25:17 10° S 19:29:06 62° E 19:29:54 48° NE
SJ-6B 2.3 19:28:11 27° SSE 19:29:57 88° ENE 19:33:24 10° NNW
SPOT 5 3.3 19:31:24 41° ENE 19:31:24 41° ENE 19:36:06 10° N
Tiangong -2.0 19:29:40 10° W 19:32:34 72° WNW 19:32:34 72° WNW
Tsikada Rocket 4.1 19:27:10 10° SSE 19:32:56 45° E 19:38:46 10° NNE
SeaSat 1 4.4 19:29:35 10° SSW 19:33:46 28° WSW 19:37:59 10° NW
Cosmos 2084 3.5 19:31:11 10° SSW 19:35:02 54° SE 19:35:02 54° SE
IRAS Rocket 4.2 19:32:19 10° SSE 19:37:55 87° WSW 19:43:36 10° NNW
Cosmos 2228 3.6 19:38:49 10° NNW 19:42:56 56° W 19:47:03 10° S
Cosmos 2219 3.2 19:38:33 10° S 19:44:09 58° ESE 19:45:34 45° ENE
Cosmos 1544 Rocket 3.5 19:42:12 10° N 19:46:04 65° NNE 19:46:04 65° NNE
BREEZE M DEB (TANK) 4.3 19:28:43 10° SW 19:47:16 51° SSE 19:49:17 41° ESE
Cosmos 2263 Rocket 2.3 19:48:17 10° SSW 19:53:56 74° WNW 19:58:28 17° NNE
Orbus 7S? 3.6 19:50:45 10° NW 19:56:52 77° NNW 19:56:52 77° NNW
Cosmos 2034 Rocket 4.0 19:57:09 10° N 20:03:20 79° W 20:09:32 10° S
Cosmos 2237 Rocket 4.3 20:01:00 10° NW 20:05:33 25° WSW 20:10:03 10° SSW
Cosmos 1634 Rocket 4.0 20:03:31 10° N 20:09:11 62° NE 20:09:11 62° NE
Cosmos 2082 3.7 20:06:32 10° SSW 20:11:26 66° S 20:11:26 66° S
Cosmos 2344 3.9 20:11:58 10° SW 20:19:51 60° NW 20:24:32 23° NNE
Cosmos 2227 Rocket 4.2 20:22:45 10° WSW 20:27:23 25° NW 20:32:02 10° N
SL-16 R/B 2.7 20:27:05 10° NNW 20:32:37 56° WSW 20:32:45 56° WSW
